When you browse on this site, cookies collect data to enhance your experience and personalize the content and advertising you see.
Visit our Privacy Policy to learn more. By continuing to use the site, you agree to this use of cookies and data.
  • In Lithuania
  • List of Countries
  • For 7 days
  • Water Temperature
  • Satellite Maps
  • Weather Map
  • Weather Widgets
  • user-avatar
    Login

    Hourly Weather Zarzyca

    Today, 16 December, Sunday

    Time Temperature Precipitation Wind Pressure Humidity
    00:00 -4°C° 0 mm 2 mps 743 mmHg 88%
    01:00 -2°C° 0 mm 1 mps 742 mmHg 92%
    02:00 -2°C° 0 mm 1 mps 742 mmHg 92%
    03:00 -2°C° 0 mm 1 mps 742 mmHg 92%
    04:00 -2°C° 0 mm 1 mps 741 mmHg 92%
    05:00 -3°C° 0 mm 1 mps 741 mmHg 92%
    06:00 -3°C° 0 mm 1 mps 741 mmHg 93%
    07:00 -3°C° 0 mm 1 mps 740 mmHg 93%
    08:00 -3°C° 0 mm 1 mps 740 mmHg 90%
    09:00 -2°C° 0 mm 1 mps 740 mmHg 87%
    10:00 -2°C° 0 mm 1 mps 740 mmHg 84%
    11:00 -3°C° 0 mm 2 mps 740 mmHg 81%
    12:00 -3°C° 0 mm 2 mps 740 mmHg 78%
    13:00 -2°C° 0 mm 2 mps 740 mmHg 74%
    14:00 -3°C° 0 mm 2 mps 739 mmHg 78%
    15:00 -4°C° 0 mm 2 mps 739 mmHg 82%
    16:00 -4°C° 0 mm 2 mps 739 mmHg 85%
    17:00 -4°C° 0 mm 2 mps 739 mmHg 85%
    18:00 -5°C° 0 mm 2 mps 739 mmHg 84%
    19:00 -6°C° 0 mm 3 mps 739 mmHg 84%
    20:00 -6°C° 0 mm 3 mps 739 mmHg 83%
    21:00 -5°C° 0 mm 3 mps 740 mmHg 82%
    22:00 -5°C° 0 mm 3 mps 740 mmHg 81%
    23:00 -5°C° 0 mm 3 mps 740 mmHg 82%

    Tomorrow, 17 December, Monday

    Time Temperature Precipitation Wind Pressure Humidity
    00:00 -4°C° 0 mm 2 mps 740 mmHg 83%
    01:00 -4°C° 0 mm 2 mps 740 mmHg 84%
    02:00 -4°C° 0 mm 2 mps 740 mmHg 85%
    03:00 -4°C° 0 mm 2 mps 740 mmHg 86%
    04:00 -4°C° 0 mm 2 mps 740 mmHg 86%
    05:00 -3°C° 0 mm 2 mps 741 mmHg 86%
    06:00 -3°C° 0 mm 2 mps 741 mmHg 86%
    07:00 -2°C° 0 mm 2 mps 741 mmHg 86%
    08:00 -2°C° 0 mm 2 mps 742 mmHg 85%
    09:00 -1°C° 0 mm 2 mps 742 mmHg 84%
    10:00 -1°C° 0 mm 2 mps 742 mmHg 83%
    11:00 +1°C° 0 mm 2 mps 743 mmHg 83%
    12:00 +2°C° 0 mm 1 mps 743 mmHg 83%
    13:00 +3°C° 0 mm 1 mps 743 mmHg 83%
    14:00 +2°C° 0 mm 1 mps 743 mmHg 85%
    15:00 +1°C° 0 mm 1 mps 744 mmHg 86%
    16:00 +1°C° 0 mm 1 mps 744 mmHg 88%
    17:00 0°C° 0 mm 1 mps 745 mmHg 89%
    18:00 0°C° 0 mm 1 mps 745 mmHg 89%
    19:00 0°C° 0 mm 1 mps 745 mmHg 89%
    20:00 -2°C° 0 mm 2 mps 746 mmHg 89%
    21:00 -2°C° 0 mm 2 mps 746 mmHg 89%
    22:00 -2°C° 0 mm 2 mps 747 mmHg 89%
    23:00 -2°C° 0 mm 2 mps 747 mmHg 90%

    Day after tomorrow, 18 December, Tuesday

    Time Temperature Precipitation Wind Pressure Humidity
    00:00 -2°C° 0 mm 2 mps 747 mmHg 90%
    01:00 -2°C° 0 mm 2 mps 747 mmHg 90%
    02:00 -2°C° 0 mm 2 mps 747 mmHg 90%
    03:00 -2°C° 0 mm 2 mps 746 mmHg 90%
    04:00 -2°C° 0 mm 2 mps 746 mmHg 90%
    05:00 -1°C° 0 mm 2 mps 746 mmHg 90%
    06:00 -1°C° 0 mm 2 mps 746 mmHg 90%
    07:00 -1°C° 0 mm 2 mps 746 mmHg 90%
    08:00 -1°C° 0 mm 2 mps 747 mmHg 89%
    09:00 +2°C° 0 mm 1 mps 747 mmHg 88%
    10:00 +2°C° 0 mm 1 mps 747 mmHg 88%
    11:00 +3°C° 0 mm 1 mps 747 mmHg 88%
    12:00 +3°C° 0 mm 1 mps 747 mmHg 88%
    13:00 +4°C° 0 mm 1 mps 746 mmHg 88%
    14:00 +2°C° 0 mm 0 mps 746 mmHg 89%
    15:00 +1°C° 0 mm 0 mps 746 mmHg 90%
    16:00 +1°C° 0 mm 0 mps 746 mmHg 91%
    17:00 +1°C° 0 mm 0 mps 746 mmHg 91%
    18:00 +1°C° 0 mm 0 mps 746 mmHg 91%
    19:00 +1°C° 0 mm 1 mps 746 mmHg 91%
    20:00 +1°C° 0 mm 1 mps 746 mmHg 92%
    21:00 +1°C° 0 mm 1 mps 746 mmHg 92%
    22:00 +1°C° 0 mm 1 mps 746 mmHg 92%
    23:00 0°C° 0 mm 1 mps 746 mmHg 92%

    19 December, Wednesday

    Time Temperature Precipitation Wind Pressure Humidity
    00:00 0°C° 0 mm 1 mps 746 mmHg 92%
    01:00 0°C° 0 mm 1 mps 746 mmHg 92%
    02:00 0°C° 0 mm 1 mps 745 mmHg 92%
    03:00 -2°C° 0 mm 2 mps 745 mmHg 92%
    04:00 -2°C° 0 mm 2 mps 745 mmHg 92%
    05:00 -2°C° 0 mm 2 mps 745 mmHg 92%
    06:00 -2°C° 0 mm 2 mps 745 mmHg 91%
    07:00 -2°C° 0 mm 2 mps 745 mmHg 91%
    08:00 -2°C° 0 mm 3 mps 745 mmHg 89%
    09:00 -1°C° 0 mm 3 mps 745 mmHg 87%
    10:00 0°C° 0 mm 3 mps 745 mmHg 85%
    11:00 0°C° 0 mm 3 mps 745 mmHg 84%
    12:00 +1°C° 0 mm 3 mps 744 mmHg 83%
    13:00 +1°C° 0 mm 3 mps 744 mmHg 82%
    14:00 0°C° 0 mm 3 mps 744 mmHg 84%
    15:00 0°C° 0 mm 3 mps 744 mmHg 86%
    16:00 -1°C° 0 mm 3 mps 744 mmHg 89%
    17:00 -1°C° 0 mm 3 mps 743 mmHg 89%
    18:00 -1°C° 0 mm 3 mps 743 mmHg 89%
    19:00 -2°C° 0 mm 3 mps 743 mmHg 89%
    20:00 -2°C° 0 mm 3 mps 743 mmHg 88%
    21:00 -2°C° 0 mm 3 mps 743 mmHg 87%
    22:00 -2°C° 0 mm 3 mps 743 mmHg 87%
    23:00 -2°C° 0 mm 3 mps 743 mmHg 85%

    20 December, Thursday

    Time Temperature Precipitation Wind Pressure Humidity
    00:00 -2°C° 0 mm 3 mps 743 mmHg 83%
    01:00 -2°C° 0 mm 3 mps 743 mmHg 82%
    02:00 -2°C° 0 mm 3 mps 742 mmHg 81%
    03:00 -1°C° 0 mm 3 mps 742 mmHg 80%
    04:00 -1°C° 0 mm 3 mps 742 mmHg 79%
    05:00 -2°C° 0 mm 3 mps 742 mmHg 80%
    06:00 -2°C° 0 mm 3 mps 742 mmHg 80%
    07:00 -2°C° 0 mm 3 mps 742 mmHg 80%
    08:00 -3°C° 0 mm 4 mps 742 mmHg 79%
    09:00 -2°C° 0 mm 4 mps 743 mmHg 78%
    10:00 -2°C° 0 mm 4 mps 743 mmHg 76%
    11:00 -2°C° 0 mm 4 mps 743 mmHg 76%
    12:00 -2°C° 0 mm 4 mps 743 mmHg 76%
    13:00 -2°C° 0 mm 4 mps 742 mmHg 75%
    14:00 -2°C° 0 mm 4 mps 743 mmHg 77%
    15:00 -1°C° 0 mm 3 mps 743 mmHg 80%
    16:00 -2°C° 0 mm 3 mps 743 mmHg 82%
    17:00 -2°C° 0 mm 3 mps 743 mmHg 82%
    18:00 -2°C° 0 mm 3 mps 743 mmHg 83%
    19:00 -2°C° 0 mm 3 mps 743 mmHg 84%
    20:00 -2°C° 0.1 mm 3 mps 744 mmHg 84%
    21:00 -2°C° 0.1 mm 3 mps 744 mmHg 84%
    22:00 -1°C° 0.1 mm 2 mps 744 mmHg 84%
    23:00 -1°C° 0.1 mm 2 mps 744 mmHg 86%

    21 December, Friday

    Time Temperature Precipitation Wind Pressure Humidity
    00:00 -1°C° 0.1 mm 2 mps 744 mmHg 87%
    01:00 -1°C° 0.1 mm 2 mps 744 mmHg 89%
    02:00 -1°C° 0.1 mm 2 mps 744 mmHg 89%
    03:00 -1°C° 0.1 mm 2 mps 744 mmHg 90%
    04:00 -1°C° 0.1 mm 2 mps 744 mmHg 90%
    05:00 +1°C° 0.1 mm 2 mps 744 mmHg 90%
    06:00 +1°C° 0.1 mm 2 mps 744 mmHg 90%
    07:00 +1°C° 0.1 mm 2 mps 744 mmHg 91%
    08:00 +1°C° 0 mm 2 mps 744 mmHg 90%
    09:00 +1°C° 0 mm 2 mps 744 mmHg 88%
    10:00 +1°C° 0 mm 2 mps 744 mmHg 87%
    11:00 +2°C° 0 mm 2 mps 743 mmHg 87%
    12:00 +2°C° 0 mm 2 mps 743 mmHg 86%
    13:00 +3°C° 0 mm 2 mps 743 mmHg 85%
    14:00 +2°C° 0 mm 2 mps 743 mmHg 86%
    15:00 0°C° 0 mm 3 mps 742 mmHg 88%
    16:00 0°C° 0 mm 3 mps 742 mmHg 90%
    17:00 -1°C° 0 mm 3 mps 742 mmHg 90%
    18:00 -1°C° 0 mm 3 mps 742 mmHg 90%
    19:00 -1°C° 0 mm 3 mps 741 mmHg 90%
    20:00 -1°C° 0 mm 3 mps 741 mmHg 90%
    21:00 0°C° 0 mm 3 mps 741 mmHg 89%
    22:00 -1°C° 0 mm 4 mps 741 mmHg 88%
    23:00 -1°C° 0.1 mm 4 mps 740 mmHg 87%
    Show more